Flag for Italy Weather past 2 weeks in Palermo, Italy

Now
84 °F

Sunny.


Feels Like: 91 °F
Forecast: 75 / 87 °F
Wind: 13 mph from West

Location: Palermo / Punta Raisi

Current Time: Aug 2, 2015 at 9:21:52 AM

Latest Report: Aug 2, 2015 at 8:50 AM


Visibility: 10 mi

Pressure: 29.98 "Hg

Humidity: 70%

Dew point: 73 °F

Location of PalermoLocation

Historic Weather in Palermo — Graph

°F

Palermo temperature yesterday

Maximum temperature yesterday: 90 °F (at 10:50 AM)
Minimum temperature yesterday: 79 °F (at 4:50 AM)
Average temperature yesterday: 84 °F

Past Weeks' High & Low Weather Summary

 TemperatureHumidityPressure
High93 °F (Jul 30, 2:50 PM)89% (Jul 31, 10:50 PM)30.07 "Hg (Jul 31, 10:50 PM)
Low75 °F (Jul 19, 5:50 AM)28% (Jul 30, 3:20 PM)29.77 "Hg (Jul 31, 3:50 AM)
Average83 °F71%29.89 "Hg
* Reported Jul 18 9:50 AM — Aug 2 7:50 AM, Palermo, Weather by CustomWeather, © 2015

Note: Actual official high and low records may vary slightly from our data, if they occured in-between our weather recording intervals... More about our weather records

Advertising

Palermo weather history for previous 24 hours

 ConditionsComfort  
Time TempWeatherWind HumidityBarometerVisibility
7:50 AM
Sun, Aug 2
82 °FSunny.5 mph74%29.95 "Hg10 mi
7:20 AM82 °FSunny.2 mph79%29.92 "Hg10 mi
6:50 AM81 °FClear.2 mph84%29.92 "Hg10 mi
6:20 AM81 °FClear.1 mph84%29.92 "Hg10 mi
5:50 AM81 °FPassing clouds.3 mph84%29.92 "HgN/A
5:20 AM82 °FClear.3 mph84%29.92 "Hg10 mi
4:50 AM82 °FClear.6 mph89%29.92 "Hg10 mi
4:20 AM84 °FClear.6 mph84%29.92 "Hg10 mi
3:50 AM82 °FPassing clouds.8 mph79%29.92 "HgN/A
3:20 AM84 °FClear.9 mph79%29.92 "Hg10 mi
2:50 AM84 °FClear.9 mph79%29.95 "Hg10 mi
2:20 AM84 °FClear.8 mph74%29.95 "Hg10 mi
1:50 AM84 °FClear.9 mph70%29.95 "Hg10 mi
1:20 AM84 °FClear.8 mph74%29.95 "Hg10 mi
12:50 AM82 °FClear.10 mph89%29.98 "Hg10 mi
11:50 PM
Sat, Aug 1
84 °FClear.9 mph84%29.98 "Hg10 mi
11:20 PM84 °FClear.6 mph84%29.98 "Hg10 mi
10:50 PM84 °FClear.13 mph79%29.98 "Hg10 mi
10:20 PM84 °FClear.10 mph84%29.98 "Hg10 mi
9:50 PM84 °FClear.13 mph84%29.98 "Hg10 mi
9:20 PM86 °FClear.12 mph79%29.98 "Hg10 mi
8:50 PM84 °FSunny.12 mph84%29.95 "Hg10 mi
8:20 PM86 °FSunny.14 mph84%29.95 "Hg10 mi
7:50 PM86 °FSunny.14 mph75%29.92 "Hg10 mi
7:20 PM88 °FSunny.16 mph75%29.92 "Hg10 mi
6:50 PM86 °FSunny.15 mph79%29.92 "Hg10 mi
6:20 PM86 °FSunny.14 mph79%29.92 "Hg10 mi
5:20 PM88 °FSunny.15 mph75%29.92 "Hg10 mi
4:50 PM88 °FSunny.14 mph70%29.95 "Hg10 mi
4:20 PM88 °FSunny.12 mph75%29.95 "Hg10 mi
3:50 PM86 °FSunny.12 mph79%29.95 "Hg10 mi
3:20 PM88 °FSunny.9 mph75%29.92 "Hg10 mi
2:50 PM88 °FSunny.13 mph75%29.95 "Hg10 mi
2:20 PM88 °FSunny.9 mph75%29.95 "Hg10 mi
1:50 PM88 °FSunny.9 mph75%29.95 "Hg10 mi
1:20 PM86 °FSunny.9 mph79%29.95 "Hg10 mi
12:50 PM88 °FSunny.7 mph75%29.92 "Hg10 mi
12:20 PM86 °FSunny.7 mph79%29.92 "Hg10 mi
11:50 AM86 °FSunny.7 mph79%29.92 "Hg10 mi
11:20 AM88 °FSunny.16 mph70%29.92 "Hg10 mi
10:50 AM90 °FPassing clouds.13 mph63%29.89 "HgN/A
10:20 AM88 °FSunny.14 mph70%29.86 "Hg10 mi
9:50 AM86 °FSunny.15 mph75%29.86 "Hg10 mi
9:20 AM84 °FSunny.5 mph79%29.89 "Hg10 mi
Weather by CustomWeather, © 2015

See weather overviewHow to use our weather pages